Regional Weather Roundup
Issued by NWS Kansas City/Pleasant Hill, MO

Home | Current Version | Previous Version | Graphics & Text | Print | Product List | Glossary Off
Versions: 1 2 3 4 5 6 7 8 9 10 11 12 13 14 15 16 17 18 19 20 21 22 23 24 25 26 27

000
ASUS43 KEAX 261110
RWREAX

WEATHER ROUNDUP FOR EASTERN KANSAS AND NORTHWEST MISSOURI
NATIONAL WEATHER SERVICE KANSAS CITY/PLEASANT HILL MO
600 AM CDT THU MAY 26 2016

KSZ040-057-103>105-MOZ028-029-037-043-261200-
...KANSAS CITY METROPOLITAN AREA...

CITY           SKY/WX    TMP DP  RH WIND       PRES   REMARKS
K.C. INTL      CLOUDY    64  61  90 CALM      29.89R
K.C. DOWNTOWN  CLOUDY    66  61  84 CALM      29.86F
LEES SUMMIT    CLOUDY    65  62  90 VRB7      29.88F
OLATHE - IXD   CLOUDY    64  61  90 SE8       29.89F
OLATHE - OJC   CLOUDY    61  59  93 S5        29.88F
LAWRENCE       MOCLDY    65  62  90 E7        29.89S

$$

MOZ001>008-011>017-020>025-030>033-038>040-044>046-053-054-261200-
...NORTHERN AND CENTRAL MISSOURI...

CITY           SKY/WX    TMP DP  RH WIND       PRES   REMARKS
ST. JOSEPH     CLOUDY    63  60  90 CALM      29.87S
MOSBY          CLOUDY    66  61  82 N6        29.88S THUNDER
WARRENSBURG    TSTM      64  61  88 CALM      29.94R
WHITEMAN AFB   LGT RAIN  63  63 100 W9G23     29.93R
CLINTON        CLOUDY    63  63 100 S5        29.92S
SEDALIA        MOCLDY    65  62  90 NW3       29.90F
WARSAW         NOT AVBL
CHILLICOTHE      N/A     72  57  59 S8        29.88F
KIRKSVILLE     CLOUDY    69  65  86 W6        29.90R

$$

MOZ041-047>049-056>058-063>065-088>090-097-261200-
...EASTERN AND SOUTHERN MISSOURI...

CITY           SKY/WX    TMP DP  RH WIND       PRES   REMARKS
ST. LOUIS INTL CLOUDY    72  67  84 S7        29.92S
SPIRIT OF STL  PTCLDY    70  70 100 CALM      29.90S
COLUMBIA       LGT RAIN  66  61  84 N14       29.95S
JEFFERSON CITY LGT RAIN  65  62  90 N8        29.92F
ROLLA          TSTM      66  63  90 NW13G40   29.95R FOG
SPRINGFIELD    CLOUDY    71  68  90 S9        29.93R
JOPLIN         MOCLDY    73  71  93 S9        29.91R
WEST PLAINS    CLOUDY    73  69  87 S5        29.99R

$$

IAZ060-094-KSZ022-034>040-054-083-096-NEZ052-066-093-261200-
...KANSAS...SOUTHEAST NEBRASKA AND IOWA...

CITY           SKY/WX    TMP DP  RH WIND       PRES   REMARKS
TOPEKA         CLOUDY    68  63  84 E3        29.87S
MANHATTAN      CLOUDY    67  62  84 NE6       29.84R
EMPORIA        CLEAR     72  70  93 SE10      29.85S
CHANUTE        CLOUDY    75  72  90 S6        29.88R FOG
WICHITA        CLOUDY    75  71  87 N5        29.83S
OMAHA          PTCLDY    60  56  86 SE5       29.87R
LINCOLN        CLEAR     57  54  89 NW3       29.88S
FALLS CITY     CLEAR     63  60  90 CALM      29.87R
LAMONI         CLOUDY    65  62  90 CALM      29.89F
DES MOINES     CLOUDY    62  58  86 S7        29.88R

$$





USA.gov is the U.S. government's official web portal to all federal, state and local government web resources and services.